Location: Luxembourg
(49.6117°N, 6.1300°E)
Time: 14:28:51
(UTC+01:00)

X-37B - Pass Details

Date: 12 December 2021
Orbit: 334 x 337 km, 45.0° (Epoch: 11 January)

Event Time Altitude Azimuth Distance (km) Brightness Sun altitude
Rises 18:19:17 0° 251° (WSW) 2,102 6.2 -15.8°
Reaches altitude 10° 18:21:24 10° 241° (WSW) 1,266 4.4 -16.2°
Maximum altitude 18:23:58 31° 176° (S) 617 1.7 -16.6°
Enters shadow 18:24:37 27° 148° (SSE) 678 1.6 -16.7°
